Weather History for Ubon Ratchathani, Thailand

Change the Weather History Date:

Friday, October 5, 2012

  Actual Average Record
Temperature  
Mean Temperature 85 °F -  
Max Temperature 92 °F 88 °F - ()
Min Temperature 78 °F 71 °F - ()
Cooling Degree Days 20    
Growing Degree Days 35 (Base 50)    
Moisture  
Dew Point 76 °F    
Average Humidity 75    
Maximum Humidity 94    
Minimum Humidity 52    
Precipitation  
Precipitation 0.24 in 0.11 in - ()
Sea Level Pressure  
Sea Level Pressure 29.75 in    
Wind  
Wind Speed 2 mph ()    
Max Wind Speed 7 mph    
Max Gust Speed -    
Visibility 4.7 miles    
Events      
T = Trace of Precipitation, MM = Missing Value Source: Averaged Metar Reports

Daily Weather History Graph

Daily Weather History Graph

Search for Another Location

Airport:

Trip Planner

Search our weather history database for the weather conditions in past years. The results will help you decide how hot, cold, wet, or windy it might be!

Date:

Astronomy

Oct. 05, 2012 Rise Set
Actual Time 5:50 AM ICT 5:46 PM ICT
Civil Twilight 5:29 AM ICT 6:08 PM ICT
Nautical Twilight 5:04 AM ICT 6:33 PM ICT
Astronomical Twilight 4:39 AM ICT 6:58 PM ICT
Moon 9:25 PM ICT (10/5) 9:49 AM ICT (10/5)
Length of Visible Light 12h 39m
Length of Day
11h 56m
Waning Gibbous, 78% of the Moon is Illuminated
Oct 5
Waning Gibbous
Oct 8
Last Quarter
Oct 15
New
Oct 22
First Quarter
Oct 30
Full

Hourly Weather History & Observations

Time (ICT) Temp. Heat Index Dew Point Humidity Pressure Visibility Wind Dir Wind Speed Gust Speed Precip Events Conditions
12:00 AM 82.4 °F 90.9 °F 77.0 °F 84% 29.77 in 3.7 mi SE 2.3 mph - N/A   Mostly Cloudy
1:00 AM 82 °F - 77 °F 81% 29.77 in 4 mi ENE 2.3 mph - -   Mist
1:00 AM 82.4 °F 90.9 °F 77.0 °F 84% 29.77 in 4.3 mi ENE 2.3 mph - N/A   Mostly Cloudy
2:00 AM 80.6 °F 87.1 °F 77.0 °F 89% 29.74 in 4.3 mi SW 3.5 mph - N/A   Mostly Cloudy
4:00 AM 80.6 °F 87.1 °F 77.0 °F 89% 29.74 in 5.0 mi South 3.5 mph - N/A   Mostly Cloudy
5:00 AM 78.8 °F - 75.2 °F 89% 29.74 in 5.0 mi East 2.3 mph - N/A   Mostly Cloudy
6:00 AM 78.8 °F - 77.0 °F 94% 29.77 in 1.2 mi ENE 2.3 mph - N/A   Mostly Cloudy
7:00 AM 80 °F - 76 °F 85% 29.81 in 2 mi WSW 4.6 mph - -   Mist
7:00 AM 80.6 °F 87.1 °F 77.0 °F 89% 29.80 in 2.5 mi WSW 4.6 mph - N/A   Mostly Cloudy
9:00 AM 80.6 °F 86.2 °F 75.2 °F 84% 29.83 in 5.0 mi North 2.3 mph - N/A   Mostly Cloudy
10:00 AM 84.2 °F 92.3 °F 75.2 °F 74% 29.83 in 5.6 mi NNE 2.3 mph - N/A   Mostly Cloudy
11:00 AM 87.8 °F 97.6 °F 75.2 °F 66% 29.80 in 5.6 mi NE 3.5 mph - N/A   Mostly Cloudy
12:00 PM 87.8 °F 97.6 °F 75.2 °F 66% 29.77 in 5.6 mi ENE 2.3 mph - N/A   Mostly Cloudy
1:00 PM 89 °F - 75 °F 54% 29.73 in 6 mi West 4.6 mph - -   Haze
1:00 PM 89.6 °F 99.8 °F 75.2 °F 62% 29.74 in 5.6 mi West 4.6 mph - N/A   Mostly Cloudy
2:00 PM 91.4 °F 100.1 °F 73.4 °F 55% 29.71 in 5.6 mi Calm Calm - N/A   Mostly Cloudy
3:00 PM 91.4 °F 102.5 °F 75.2 °F 59% 29.68 in 5.6 mi NNW 4.6 mph - N/A   Mostly Cloudy
4:00 PM 93.2 °F 102.4 °F 73.4 °F 52% 29.68 in 5.6 mi ENE 4.6 mph - N/A   Mostly Cloudy
5:00 PM 87.8 °F 99.7 °F 77.0 °F 70% 29.68 in 5.6 mi NE 6.9 mph - N/A   Mostly Cloudy
5:30 PM 87.8 °F 97.6 °F 75.2 °F 66% 29.71 in 5.6 mi NE 3.5 mph - N/A   Mostly Cloudy
6:00 PM 86.0 °F 95.1 °F 75.2 °F 70% 29.71 in 5.6 mi East 2.3 mph - N/A   Mostly Cloudy
7:00 PM 85 °F - 76 °F 69% 29.74 in 5 mi Calm Calm - -   Mist
7:00 PM 86.0 °F 96.9 °F 77.0 °F 74% 29.74 in 5.6 mi Calm Calm - N/A   Mostly Cloudy
8:00 PM 84.2 °F 94.1 °F 77.0 °F 79% 29.77 in 4.3 mi East 2.3 mph - N/A   Mostly Cloudy
9:00 PM 84.2 °F 94.1 °F 77.0 °F 79% 29.77 in 4.3 mi Calm Calm - N/A   Mostly Cloudy
10:00 PM 82.4 °F 90.9 °F 77.0 °F 84% 29.80 in 4.3 mi Calm Calm - N/A   Mostly Cloudy